Tracking 17143 objects as of 30-June-2015
HD Live streaming from Space Station

SWISSCUBE

Track SWISSCUBE now!
10-day predictions
SWISSCUBE is classified as:


NORAD ID: 35932
Int'l Code: 2009-051B
Perigee: 710.4 km
Apogee: 719.7 km
Inclination: 98.4 °
Period: 98.9 minutes
Semi major axis: 7086 km
RCS: 0.05 m2 (small)
Launch date: September 23, 2009
Source: (SWTZ)

SWISSCUBE is Switzerland's first satellite and will try to detect a phenomenon known as airglow using an off-the-shelf sensor.
Your satellite tracking list
Your tracking list is empty





NASA's NSSDC Master Catalog

Two Line Element Set (TLE):
1 35932U 09051B   15181.30163028  .00000256  00000-0  69788-4 0  9991
2 35932 098.4100 300.1140 0006546 303.5493 056.5079 14.55438683305875

Source of the keplerian elements: AFSPC

N2YO: 381